SAS806 EGLL-ENGM

Flight info

Callsign SAS806
Flight time 1h 35m
Altitude 35000
Route BPK Q295 MATCH P144 SAMHO DCT LARGA DCT INBOB M604 DANKO DCT PIPEX DCT ULMUG DCT RIPAM
Aircraft MD82/M-SDFGIRWY/S

Departure

Time 2026-05-05 16:51
Airport London Heathrow Airport (EGLL)

Arrival

Time 2026-05-05 18:26
Airport Oslo-Gardermoen International Airport (ENGM)
Time Latitude Longitude Altitude Speed Heading
2026-05-05 15:54 51.46819 -0.45115 88 ft 0 kts 360°
2026-05-05 16:37 51.46790 -0.45118 88 ft 4 kts
2026-05-05 16:37 51.46769 -0.45116 89 ft 3 kts 326°
2026-05-05 16:38 51.46753 -0.45093 93 ft 4 kts 295°
2026-05-05 16:38 51.46750 -0.45055 88 ft 4 kts 268°
2026-05-05 16:38 51.46751 -0.45037 90 ft 1 kts 269°
2026-05-05 16:41 51.46751 -0.45038 90 ft 1 kts 269°
2026-05-05 16:42 51.46751 -0.45063 88 ft 4 kts 270°
2026-05-05 16:42 51.46750 -0.45116 88 ft 5 kts 270°
2026-05-05 16:42 51.46750 -0.45177 88 ft 6 kts 270°
2026-05-05 16:42 51.46750 -0.45260 88 ft 9 kts 270°
2026-05-05 16:43 51.46750 -0.45366 88 ft 10 kts 270°
2026-05-05 16:43 51.46749 -0.45490 87 ft 12 kts 270°
2026-05-05 16:43 51.46749 -0.45630 87 ft 13 kts 270°
2026-05-05 16:43 51.46748 -0.45780 89 ft 14 kts 270°
2026-05-05 16:44 51.46747 -0.45939 91 ft 15 kts 270°
2026-05-05 16:44 51.46748 -0.46106 91 ft 15 kts 270°
2026-05-05 16:44 51.46747 -0.46267 91 ft 14 kts 269°
2026-05-05 16:44 51.46746 -0.46415 88 ft 12 kts 271°
2026-05-05 16:45 51.46748 -0.46541 89 ft 10 kts 270°
2026-05-05 16:45 51.46748 -0.46653 88 ft 10 kts 270°
2026-05-05 16:45 51.46747 -0.46768 91 ft 11 kts 269°
2026-05-05 16:45 51.46747 -0.46895 91 ft 12 kts 269°
2026-05-05 16:46 51.46746 -0.47032 88 ft 13 kts 269°
2026-05-05 16:46 51.46745 -0.47199 87 ft 16 kts 270°
2026-05-05 16:46 51.46745 -0.47384 87 ft 17 kts 269°
2026-05-05 16:46 51.46744 -0.47582 87 ft 18 kts 270°
2026-05-05 16:47 51.46745 -0.47783 87 ft 18 kts 270°
2026-05-05 16:47 51.46743 -0.47983 87 ft 18 kts 271°
2026-05-05 16:47 51.46742 -0.48176 87 ft 16 kts 269°
2026-05-05 16:47 51.46742 -0.48347 87 ft 13 kts 269°
2026-05-05 16:48 51.46721 -0.48456 91 ft 10 kts 222°
2026-05-05 16:48 51.46672 -0.48471 89 ft 7 kts 180°
2026-05-05 16:48 51.46640 -0.48471 88 ft 3 kts 179°
2026-05-05 16:48 51.46635 -0.48471 88 ft 1 kts 179°
2026-05-05 16:49 51.46626 -0.48471 88 ft 2 kts 179°
2026-05-05 16:49 51.46609 -0.48470 88 ft 4 kts 179°
2026-05-05 16:49 51.46563 -0.48469 89 ft 7 kts 179°
2026-05-05 16:49 51.46513 -0.48468 90 ft 7 kts 179°
2026-05-05 16:50 51.46480 -0.48437 92 ft 4 kts 107°
2026-05-05 16:50 51.46479 -0.48335 89 ft 17 kts 90°
2026-05-05 16:50 51.46480 -0.47830 87 ft 76 kts 90°
2026-05-05 16:50 51.46484 -0.46612 92 ft 140 kts 90°
2026-05-05 16:51 51.46488 -0.44756 208 ft 183 kts 87°
2026-05-05 16:51 51.46490 -0.42790 1225 ft 170 kts 86°
2026-05-05 16:51 51.46741 -0.40973 2085 ft 173 kts 55°
2026-05-05 16:51 51.47512 -0.39327 2542 ft 198 kts 51°
2026-05-05 16:52 51.48405 -0.37447 2943 ft 226 kts 52°
2026-05-05 16:52 51.49394 -0.35337 3323 ft 253 kts 52°
2026-05-05 16:52 51.50519 -0.33034 4009 ft 260 kts 50°
2026-05-05 16:52 51.51657 -0.30795 5059 ft 258 kts 50°
2026-05-05 16:53 51.52697 -0.28392 5750 ft 270 kts 66°
2026-05-05 16:53 51.53370 -0.25505 6415 ft 279 kts 72°
2026-05-05 16:53 51.53974 -0.22528 7249 ft 282 kts 72°
2026-05-05 16:53 51.54710 -0.19594 8051 ft 286 kts 56°
2026-05-05 16:54 51.56141 -0.17381 8797 ft 290 kts 27°
2026-05-05 16:54 51.58071 -0.16485 9602 ft 292 kts 359°
2026-05-05 16:54 51.60107 -0.16524 10329 ft 295 kts
2026-05-05 16:54 51.62171 -0.16121 10974 ft 298 kts
2026-05-05 16:55 51.64209 -0.15413 11710 ft 302 kts 12°
2026-05-05 16:55 51.66255 -0.14573 12396 ft 306 kts 14°
2026-05-05 16:55 51.68358 -0.13676 12821 ft 319 kts 14°
2026-05-05 16:55 51.70557 -0.12722 13092 ft 336 kts 14°
2026-05-05 16:56 51.72819 -0.11452 13284 ft 355 kts 28°
2026-05-05 16:56 51.74747 -0.08872 13575 ft 369 kts 52°
2026-05-05 16:56 51.75947 -0.05195 14110 ft 374 kts 74°
2026-05-05 16:56 51.76345 -0.01042 14722 ft 375 kts 87°
2026-05-05 16:57 51.76501 0.03174 15282 ft 378 kts 87°
2026-05-05 16:57 51.76675 0.07422 15910 ft 380 kts 86°
2026-05-05 16:57 51.76889 0.11692 16517 ft 383 kts 86°
2026-05-05 16:57 51.77151 0.15994 17122 ft 386 kts 85°
2026-05-05 16:58 51.77457 0.20322 17720 ft 389 kts 84°
2026-05-05 16:58 51.78054 0.24600 18270 ft 395 kts 68°
2026-05-05 16:58 51.79503 0.28386 18766 ft 400 kts 48°
2026-05-05 16:58 51.81508 0.31524 19264 ft 404 kts 41°
2026-05-05 16:59 51.83625 0.34546 19745 ft 408 kts 41°
2026-05-05 16:59 51.85761 0.37613 20233 ft 412 kts 41°
2026-05-05 16:59 51.87868 0.40690 20716 ft 415 kts 42°
2026-05-05 16:59 51.89999 0.43877 21231 ft 418 kts 43°
2026-05-05 17:00 51.92116 0.47126 21728 ft 422 kts 43°
2026-05-05 17:00 51.94238 0.50449 22188 ft 426 kts 44°
2026-05-05 17:00 51.96366 0.53820 22662 ft 430 kts 44°
2026-05-05 17:00 51.98507 0.57229 23158 ft 433 kts 44°
2026-05-05 17:01 52.00669 0.60671 23582 ft 437 kts 44°
2026-05-05 17:01 52.02889 0.64071 23950 ft 440 kts 39°
2026-05-05 17:01 52.05320 0.67088 24450 ft 440 kts 34°
2026-05-05 17:01 52.07839 0.69918 24905 ft 441 kts 33°
2026-05-05 17:02 52.10395 0.72727 25333 ft 444 kts 33°
2026-05-05 17:02 52.12959 0.75554 25755 ft 447 kts 33°
2026-05-05 17:02 52.15532 0.78426 26158 ft 450 kts 33°
2026-05-05 17:02 52.18110 0.81345 26605 ft 452 kts 34°
2026-05-05 17:03 52.20656 0.84263 27023 ft 454 kts 34°
2026-05-05 17:03 52.23249 0.87255 27437 ft 457 kts 34°
2026-05-05 17:03 52.25849 0.90269 27815 ft 460 kts 34°
2026-05-05 17:03 52.28462 0.93301 28249 ft 462 kts 34°
2026-05-05 17:04 52.31094 0.96354 28685 ft 464 kts 35°
2026-05-05 17:04 52.33735 0.99414 29131 ft 466 kts 35°
2026-05-05 17:04 52.36373 1.02474 29734 ft 463 kts 35°
2026-05-05 17:04 52.38992 1.05530 30313 ft 460 kts 35°
2026-05-05 17:05 52.41595 1.08579 30781 ft 459 kts 35°
2026-05-05 17:05 52.44152 1.11577 31188 ft 458 kts 35°
2026-05-05 17:05 52.46746 1.14616 31591 ft 458 kts 35°
2026-05-05 17:05 52.49334 1.17646 32009 ft 457 kts 35°
2026-05-05 17:06 52.51915 1.20666 32441 ft 455 kts 35°
2026-05-05 17:06 52.54490 1.23680 32877 ft 453 kts 35°
2026-05-05 17:06 52.57056 1.26688 33274 ft 452 kts 35°
2026-05-05 17:06 52.59621 1.29699 33638 ft 451 kts 35°
2026-05-05 17:07 52.62172 1.32696 33998 ft 451 kts 35°
2026-05-05 17:07 52.64723 1.35698 34325 ft 449 kts 35°
2026-05-05 17:07 52.67261 1.38688 34634 ft 448 kts 35°
2026-05-05 17:07 52.69801 1.41685 34804 ft 451 kts 35°
2026-05-05 17:08 52.74935 1.47801 34930 ft 460 kts 36°
2026-05-05 17:08 52.80158 1.54039 34957 ft 464 kts 35°
2026-05-05 17:09 52.85374 1.60257 34965 ft 460 kts 35°
2026-05-05 17:09 52.90524 1.66402 34965 ft 458 kts 35°
2026-05-05 17:10 52.95728 1.72628 34966 ft 459 kts 36°
2026-05-05 17:10 53.00872 1.78798 34968 ft 459 kts 35°
2026-05-05 17:11 53.06039 1.85036 34965 ft 459 kts 36°
2026-05-05 17:11 53.11193 1.91298 34966 ft 458 kts 36°
2026-05-05 17:12 53.16351 1.97554 34971 ft 458 kts 36°
2026-05-05 17:12 53.21510 2.03806 34970 ft 458 kts 36°
2026-05-05 17:13 53.26668 2.10053 34973 ft 458 kts 35°
2026-05-05 17:13 53.31865 2.16086 34971 ft 458 kts 33°
2026-05-05 17:14 53.37144 2.22038 34970 ft 457 kts 33°
2026-05-05 17:14 53.42423 2.27999 34972 ft 457 kts 34°
2026-05-05 17:15 53.47693 2.34003 34973 ft 457 kts 34°
2026-05-05 17:15 53.52839 2.40283 34973 ft 457 kts 37°
2026-05-05 17:16 53.57900 2.46785 34974 ft 457 kts 37°
2026-05-05 17:16 53.62968 2.53257 34972 ft 457 kts 37°
2026-05-05 17:17 53.68050 2.59687 34973 ft 457 kts 37°
2026-05-05 17:17 53.73131 2.66110 34974 ft 456 kts 36°
2026-05-05 17:18 53.78215 2.72563 34973 ft 456 kts 37°
2026-05-05 17:18 53.83254 2.78990 34973 ft 456 kts 37°
2026-05-05 17:19 53.88307 2.85503 34971 ft 456 kts 37°
2026-05-05 17:19 53.93356 2.92020 34974 ft 456 kts 37°
2026-05-05 17:20 53.98401 2.98523 34974 ft 455 kts 37°
2026-05-05 17:20 54.03445 3.05032 34968 ft 454 kts 37°
2026-05-05 17:21 54.08464 3.11530 34973 ft 453 kts 37°
2026-05-05 17:22 54.15948 3.21258 34976 ft 452 kts 37°
2026-05-05 17:22 54.20940 3.27821 34972 ft 452 kts 37°
2026-05-05 17:23 54.25920 3.34383 34971 ft 452 kts 37°
2026-05-05 17:23 54.30061 3.39833 34968 ft 452 kts 37°
2026-05-05 17:24 54.35050 3.46403 34975 ft 452 kts 37°
2026-05-05 17:24 54.40035 3.52985 34973 ft 452 kts 37°
2026-05-05 17:25 54.45016 3.59581 34977 ft 452 kts 37°
2026-05-05 17:25 54.49987 3.66193 34973 ft 452 kts 37°
2026-05-05 17:26 54.54942 3.72859 34970 ft 452 kts 37°
2026-05-05 17:26 54.59879 3.79497 34967 ft 453 kts 37°
2026-05-05 17:27 54.64864 3.86193 34974 ft 454 kts 37°
2026-05-05 17:27 54.69855 3.92910 34974 ft 455 kts 37°
2026-05-05 17:28 54.74851 3.99651 34969 ft 456 kts 37°
2026-05-05 17:28 54.79851 4.06422 34972 ft 456 kts 37°
2026-05-05 17:29 54.84875 4.13181 34974 ft 457 kts 37°
2026-05-05 17:29 54.90034 4.19604 34972 ft 456 kts 32°
2026-05-05 17:30 54.95343 4.25507 34978 ft 456 kts 31°
2026-05-05 17:30 55.00729 4.31421 34976 ft 458 kts 31°
2026-05-05 17:31 55.06103 4.37414 34977 ft 459 kts 31°
2026-05-05 17:31 55.11475 4.43479 34977 ft 460 kts 31°
2026-05-05 17:32 55.16855 4.49578 34983 ft 461 kts 31°
2026-05-05 17:32 55.22240 4.55690 34978 ft 461 kts 31°
2026-05-05 17:33 55.27624 4.61855 34982 ft 462 kts 31°
2026-05-05 17:33 55.32975 4.68004 34984 ft 463 kts 31°
2026-05-05 17:34 55.38383 4.74207 34981 ft 464 kts 31°
2026-05-05 17:34 55.43792 4.80420 34983 ft 465 kts 31°
2026-05-05 17:35 55.49200 4.86653 34980 ft 464 kts 31°
2026-05-05 17:35 55.54594 4.92890 34979 ft 463 kts 31°
2026-05-05 17:36 55.60004 4.99152 34983 ft 465 kts 31°
2026-05-05 17:36 55.65372 5.05432 34971 ft 466 kts 31°
2026-05-05 17:37 55.70776 5.11831 34982 ft 467 kts 31°
2026-05-05 17:37 55.76191 5.18211 34986 ft 468 kts 31°
2026-05-05 17:38 55.81629 5.24604 34984 ft 468 kts 31°
2026-05-05 17:38 55.87066 5.31015 34984 ft 468 kts 30°
2026-05-05 17:39 55.92483 5.37428 34988 ft 467 kts 31°
2026-05-05 17:39 55.97862 5.43842 34987 ft 468 kts 31°
2026-05-05 17:40 56.03279 5.50351 34993 ft 469 kts 31°
2026-05-05 17:40 56.08700 5.56857 34992 ft 469 kts 31°
2026-05-05 17:41 56.14131 5.63381 34997 ft 470 kts 30°
2026-05-05 17:41 56.19563 5.69923 35047 ft 472 kts 30°
2026-05-05 17:42 56.25038 5.76542 35009 ft 475 kts 30°
2026-05-05 17:42 56.30525 5.83201 35000 ft 476 kts 30°
2026-05-05 17:43 56.36012 5.89933 35006 ft 477 kts 30°
2026-05-05 17:43 56.41465 5.96634 35005 ft 477 kts 30°
2026-05-05 17:44 56.46965 6.03385 35001 ft 478 kts 30°
2026-05-05 17:44 56.52473 6.10160 35005 ft 478 kts 30°
2026-05-05 17:45 56.57976 6.16949 35004 ft 479 kts 30°
2026-05-05 17:45 56.63475 6.23762 35007 ft 478 kts 30°
2026-05-05 17:46 56.68942 6.30604 35005 ft 477 kts 30°
2026-05-05 17:46 56.74411 6.37481 35005 ft 478 kts 30°
2026-05-05 17:47 56.79851 6.44310 35006 ft 478 kts 30°
2026-05-05 17:47 56.85343 6.51209 35002 ft 478 kts 30°
2026-05-05 17:48 56.90835 6.58133 35002 ft 479 kts 30°
2026-05-05 17:48 56.96317 6.65073 35001 ft 479 kts 30°
2026-05-05 17:49 57.01813 6.71983 35001 ft 479 kts 29°
2026-05-05 17:49 57.07371 6.78702 34998 ft 478 kts 28°
2026-05-05 17:50 57.12957 6.85350 35000 ft 478 kts 28°
2026-05-05 17:50 57.18542 6.92035 34996 ft 479 kts 28°
2026-05-05 17:51 57.24082 6.98720 34994 ft 479 kts 28°
2026-05-05 17:51 57.29659 7.05485 34994 ft 479 kts 28°
2026-05-05 17:52 57.35230 7.12265 34982 ft 479 kts 28°
2026-05-05 17:52 57.40797 7.19098 34982 ft 480 kts 28°
2026-05-05 17:53 57.46358 7.25955 34993 ft 480 kts 28°
2026-05-05 17:53 57.51942 7.32829 34979 ft 480 kts 28°
2026-05-05 17:54 57.57512 7.39697 34987 ft 480 kts 28°
2026-05-05 17:54 57.63080 7.46610 34975 ft 481 kts 28°
2026-05-05 17:55 57.68613 7.53482 34969 ft 480 kts 28°
2026-05-05 17:55 57.74164 7.60404 34966 ft 479 kts 28°
2026-05-05 17:56 57.79694 7.67374 34964 ft 479 kts 28°
2026-05-05 17:56 57.85248 7.74374 34960 ft 481 kts 28°
2026-05-05 17:57 57.90806 7.81386 34957 ft 481 kts 28°
2026-05-05 17:57 57.96337 7.88383 34950 ft 482 kts 28°
2026-05-05 17:58 58.01900 7.95447 34944 ft 482 kts 28°
2026-05-05 17:58 58.07461 8.02556 34945 ft 483 kts 28°
2026-05-05 17:59 58.13015 8.09730 34948 ft 483 kts 28°
2026-05-05 17:59 58.18561 8.16891 34949 ft 482 kts 28°
2026-05-05 18:00 58.24111 8.24048 34943 ft 482 kts 28°
2026-05-05 18:00 58.29656 8.31219 34942 ft 482 kts 28°
2026-05-05 18:01 58.35195 8.38417 34940 ft 482 kts 28°
2026-05-05 18:01 58.40740 8.45655 34934 ft 483 kts 28°
2026-05-05 18:02 58.46270 8.52967 34942 ft 484 kts 28°
2026-05-05 18:02 58.51807 8.60289 34934 ft 484 kts 28°
2026-05-05 18:03 58.57354 8.67614 34929 ft 485 kts 28°
2026-05-05 18:03 58.62869 8.74917 34930 ft 484 kts 28°
2026-05-05 18:04 58.68396 8.82270 34928 ft 482 kts 28°
2026-05-05 18:04 58.73910 8.89626 34928 ft 483 kts 28°
2026-05-05 18:05 58.79467 8.96960 34932 ft 484 kts 28°
2026-05-05 18:05 58.85060 9.04411 34306 ft 497 kts 30°
2026-05-05 18:05 58.87812 9.08516 33482 ft 501 kts 33°
2026-05-05 18:06 58.90487 9.12846 32540 ft 501 kts 33°
2026-05-05 18:06 58.91384 9.14315 32224 ft 500 kts 33°
2026-05-05 18:06 58.95820 9.21479 30731 ft 498 kts 32°
2026-05-05 18:06 58.98509 9.25699 29839 ft 496 kts 31°
2026-05-05 18:07 59.01172 9.29811 28880 ft 494 kts 31°
2026-05-05 18:07 59.03860 9.33931 27984 ft 490 kts 31°
2026-05-05 18:07 59.06530 9.38022 27128 ft 486 kts 31°
2026-05-05 18:07 59.09188 9.42105 26307 ft 492 kts 31°
2026-05-05 18:08 59.11906 9.46283 25488 ft 498 kts 31°
2026-05-05 18:08 59.14608 9.50477 24643 ft 494 kts 31°
2026-05-05 18:08 59.17281 9.54656 23794 ft 490 kts 31°
2026-05-05 18:08 59.19950 9.58709 22920 ft 481 kts 28°
2026-05-05 18:09 59.22663 9.62375 22324 ft 465 kts 25°
2026-05-05 18:09 59.24439 9.64640 21958 ft 457 kts 24°
2026-05-05 18:09 59.27927 9.68998 21295 ft 439 kts 24°
2026-05-05 18:09 59.30439 9.72148 20882 ft 418 kts 23°
2026-05-05 18:10 59.32814 9.75180 20633 ft 399 kts 25°
2026-05-05 18:10 59.34311 9.77310 20459 ft 390 kts 28°
2026-05-05 18:10 59.36393 9.80515 20147 ft 379 kts 28°
2026-05-05 18:10 59.38425 9.83699 19849 ft 369 kts 29°
2026-05-05 18:11 59.40416 9.86837 19423 ft 365 kts 29°
2026-05-05 18:11 59.42381 9.89955 18942 ft 362 kts 30°
2026-05-05 18:11 59.44317 9.93058 18546 ft 357 kts 30°
2026-05-05 18:11 59.46240 9.96147 18088 ft 354 kts 30°
2026-05-05 18:12 59.48124 9.99187 17549 ft 348 kts 30°
2026-05-05 18:12 59.49990 10.02196 17084 ft 344 kts 31°
2026-05-05 18:12 59.51827 10.05166 16612 ft 339 kts 31°
2026-05-05 18:12 59.53637 10.08091 16133 ft 335 kts 32°
2026-05-05 18:13 59.55427 10.10992 15710 ft 330 kts 32°
2026-05-05 18:13 59.57191 10.13853 15263 ft 326 kts 33°
2026-05-05 18:13 59.58929 10.16681 14833 ft 322 kts 33°
2026-05-05 18:13 59.60644 10.19477 14427 ft 318 kts 33°
2026-05-05 18:14 59.62342 10.22247 13999 ft 314 kts 34°
2026-05-05 18:14 59.64019 10.24980 13578 ft 310 kts 34°
2026-05-05 18:14 59.65675 10.27678 13090 ft 308 kts 34°
2026-05-05 18:14 59.67321 10.30365 12612 ft 305 kts 35°
2026-05-05 18:15 59.68921 10.33016 12165 ft 303 kts 36°
2026-05-05 18:15 59.70523 10.35704 11676 ft 301 kts 37°
2026-05-05 18:15 59.72113 10.38372 11251 ft 298 kts 37°
2026-05-05 18:15 59.73690 10.41000 10805 ft 295 kts 37°
2026-05-05 18:16 59.75261 10.43600 10374 ft 293 kts 37°
2026-05-05 18:16 59.76825 10.46179 9940 ft 290 kts 37°
2026-05-05 18:16 59.78369 10.48723 9515 ft 287 kts 37°
2026-05-05 18:16 59.79909 10.51260 8996 ft 286 kts 37°
2026-05-05 18:17 59.81413 10.53747 8565 ft 284 kts 37°
2026-05-05 18:17 59.82929 10.56256 8125 ft 282 kts 37°
2026-05-05 18:17 59.84424 10.58729 7862 ft 274 kts 37°
2026-05-05 18:17 59.85859 10.61114 7723 ft 263 kts 37°
2026-05-05 18:18 59.87193 10.63482 7571 ft 251 kts 48°
2026-05-05 18:18 59.88147 10.66303 7368 ft 241 kts 58°
2026-05-05 18:18 59.88956 10.69161 7139 ft 232 kts 59°
2026-05-05 18:18 59.89654 10.71614 6921 ft 226 kts 58°
2026-05-05 18:19 59.90433 10.74292 6646 ft 221 kts 58°
2026-05-05 18:19 59.91194 10.76866 6374 ft 216 kts 57°
2026-05-05 18:19 59.91963 10.79413 6094 ft 212 kts 56°
2026-05-05 18:19 59.92725 10.81902 5791 ft 209 kts 56°
2026-05-05 18:20 59.93482 10.84352 5552 ft 205 kts 55°
2026-05-05 18:20 59.94217 10.86702 5391 ft 196 kts 55°
2026-05-05 18:20 59.94929 10.88961 5136 ft 190 kts 55°
2026-05-05 18:20 59.95627 10.91170 4877 ft 186 kts 54°
2026-05-05 18:21 59.96312 10.93346 4628 ft 184 kts 54°
2026-05-05 18:21 59.96986 10.95499 4393 ft 180 kts 54°
2026-05-05 18:21 59.97649 10.97608 4215 ft 178 kts 53°
2026-05-05 18:21 59.98362 10.99592 4081 ft 175 kts 36°
2026-05-05 18:22 59.99447 11.00433 4002 ft 163 kts
2026-05-05 18:22 60.00573 11.01009 3979 ft 171 kts 13°
2026-05-05 18:22 60.01706 11.01731 3857 ft 170 kts 12°
2026-05-05 18:22 60.02847 11.02363 3736 ft 170 kts 11°
2026-05-05 18:23 60.03986 11.02991 3593 ft 170 kts 11°
2026-05-05 18:23 60.05141 11.03632 3353 ft 174 kts 11°
2026-05-05 18:23 60.06321 11.04309 3114 ft 178 kts 12°
2026-05-05 18:23 60.07524 11.05007 2868 ft 181 kts 12°
2026-05-05 18:24 60.08729 11.05688 2607 ft 184 kts 12°
2026-05-05 18:24 60.09961 11.06400 2331 ft 182 kts 12°
2026-05-05 18:24 60.11163 11.07095 2069 ft 177 kts 12°
2026-05-05 18:24 60.12326 11.07763 1810 ft 171 kts 12°
2026-05-05 18:25 60.13453 11.08415 1527 ft 165 kts 11°
2026-05-05 18:25 60.14177 11.08830 1440 ft 154 kts 12°
2026-05-05 18:25 60.15479 11.09568 1159 ft 146 kts 12°
2026-05-05 18:25 60.16444 11.10114 936 ft 143 kts 12°
2026-05-05 18:26 60.17409 11.10685 753 ft 146 kts 13°
2026-05-05 18:26 60.18359 11.11222 684 ft 133 kts 16°
2026-05-05 18:26 60.18997 11.11600 687 ft 63 kts 15°
2026-05-05 18:26 60.19289 11.11699 686 ft 21 kts 348°
2026-05-05 18:27 60.19359 11.11621 687 ft 7 kts 307°
2026-05-05 18:27 60.19375 11.11542 686 ft 0 kts 288°
2026-05-05 18:27 60.19375 11.11540 686 ft 1 kts 288°
2026-05-05 18:27 60.19381 11.11499 682 ft 5 kts 287°
2026-05-05 18:28 60.19411 11.11292 683 ft 7 kts 285°
2026-05-05 18:28 60.19426 11.11187 682 ft 9 kts 285°
2026-05-05 18:28 60.19441 11.11082 682 ft 8 kts 287°
2026-05-05 18:29 60.19449 11.11030 684 ft 0 kts 286°
2026-05-05 18:29 60.19450 11.11015 682 ft 2 kts 279°
2026-05-05 18:30 60.19443 11.10975 684 ft 3 kts 219°
2026-05-05 18:30 60.19421 11.10959 684 ft 5 kts 197°
2026-05-05 18:30 60.19382 11.10937 683 ft 7 kts 196°
2026-05-05 18:30 60.19360 11.10924 683 ft 0 kts 196°